TimeMST,TemperatureF,Dew PointF,Humidity,Sea Level PressureIn,VisibilityMPH,Wind Direction,Wind SpeedMPH,Gust SpeedMPH,PrecipitationIn,Events,Conditions,WindDirDegrees,DateUTC
12:52 AM,33.1,21.0,61,29.93,10.0,Calm,Calm,-,N/A,,Clear,0,2013-12-16 07:52:00
1:52 AM,37.0,24.1,59,29.94,10.0,NW,10.4,-,N/A,,Clear,320,2013-12-16 08:52:00
2:52 AM,36.0,23.0,59,29.95,10.0,WNW,10.4,-,N/A,,Clear,300,2013-12-16 09:52:00
3:52 AM,37.9,24.1,57,29.96,10.0,WNW,10.4,-,N/A,,Clear,300,2013-12-16 10:52:00
4:52 AM,37.9,26.1,62,30.01,10.0,NNW,15.0,-,N/A,,Clear,340,2013-12-16 11:52:00
5:52 AM,37.0,26.1,65,30.03,10.0,NNW,16.1,-,N/A,,Clear,340,2013-12-16 12:52:00
6:52 AM,35.1,26.1,70,30.07,10.0,NNW,12.7,-,N/A,,Clear,340,2013-12-16 13:52:00
7:52 AM,33.1,27.0,78,30.09,10.0,North,9.2,-,N/A,,Scattered Clouds,10,2013-12-16 14:52:00
8:52 AM,36.0,28.0,73,30.11,10.0,North,12.7,-,N/A,,Mostly Cloudy,360,2013-12-16 15:52:00
9:52 AM,37.0,28.9,73,30.12,10.0,North,12.7,-,N/A,,Clear,360,2013-12-16 16:52:00
10:52 AM,37.9,30.0,73,30.12,10.0,North,9.2,-,N/A,,Partly Cloudy,360,2013-12-16 17:52:00
11:52 AM,39.0,28.9,67,30.10,10.0,North,11.5,-,N/A,,Mostly Cloudy,360,2013-12-16 18:52:00
12:52 PM,36.0,28.0,73,30.10,10.0,North,10.4,-,N/A,,Clear,10,2013-12-16 19:52:00
1:52 PM,36.0,28.0,73,30.10,10.0,North,8.1,-,N/A,,Clear,350,2013-12-16 20:52:00
2:52 PM,36.0,28.0,73,30.12,10.0,North,9.2,-,N/A,,Clear,10,2013-12-16 21:52:00
3:52 PM,32.0,27.0,82,30.15,10.0,North,8.1,-,N/A,,Clear,10,2013-12-16 22:52:00
4:52 PM,28.9,26.1,89,30.18,10.0,North,4.6,-,N/A,,Clear,360,2013-12-16 23:52:00
5:52 PM,26.1,24.1,92,30.19,10.0,WNW,3.5,-,N/A,,Clear,290,2013-12-17 00:52:00
6:52 PM,26.1,23.0,88,30.20,10.0,West,3.5,-,N/A,,Clear,270,2013-12-17 01:52:00
7:52 PM,25.0,23.0,92,30.21,10.0,SW,4.6,-,N/A,,Clear,230,2013-12-17 02:52:00
8:52 PM,23.0,19.9,88,30.22,10.0,NNE,5.8,-,N/A,,Clear,30,2013-12-17 03:52:00
9:52 PM,21.9,19.9,92,30.24,10.0,Calm,Calm,-,N/A,,Clear,0,2013-12-17 04:52:00
10:52 PM,21.9,21.0,96,30.25,10.0,NW,5.8,-,N/A,,Clear,310,2013-12-17 05:52:00
11:52 PM,28.0,21.9,78,30.24,10.0,NW,9.2,-,N/A,,Clear,320,2013-12-17 06:52:00